Regional Weather Roundup
Issued by NWS New Orleans/Baton Rouge, LA

Home | Current Version | Previous Version | Text Only | Print | Product List | Glossary On
Versions: 1 2 3 4 5 6 7 8 9 10 11 12 13 14 15 16 17 18 19 20 21 22 23 24 25 26 27 28 29 30 31 32 33 34 35 36 37 38 39 40 41 42 43 44 45 46 47 48 49 50
000
ASUS44 KLIX 260713
RWRLIX
NEW ORLEANS REGIONAL WEATHER ROUNDUP
NATIONAL WEATHER SERVICE NEW ORLEANS LA
200 AM CDT TUE SEP 26 2017

NOTE: "FAIR" INDICATES FEW OR NO CLOUDS BELOW 12,000 FEET WITH NO
      SIGNIFICANT WEATHER AND/OR OBSTRUCTIONS TO VISIBILITY.
      SKY/WX - SKY CONDITION AND SIGNIFICANT WEATHER.
      TMP - AIR TEMPERATURE.     DP    - DEWPOINT TEMPERATURE.
      RH  - RELATIVE HUMIDITY.   PRES  - PRESSURE.
      HI  - HEAT INDEX.          WCI   - WIND CHILL INDEX.

*  THESE STATIONS ARE NOT NWS OR FAA STATIONS AND ARE NOT UNDER
   NWS QUALITY CONTROL.

LAZ038-040-048-061>063-065>067-069-260800-
SOUTHEAST LOUISIANA

CITY           SKY/WX    TMP DP  RH WIND       PRES   REMARKS
N.O. INTL ARPT PTCLDY    78  74  87 E3        29.88S
N.O. LAKEFRONT PTCLDY    78  75  90 E7        29.89S
N.O. DOWNTOWN*   N/A     78  74  87 NE6       29.90R
RESERVE*         N/A     76  74  92 CALM      29.89S
SLIDELL        CLEAR     71  68  90 CALM      29.89R
BATON ROUGE    CLEAR     72  69  90 CALM      29.90R
BOOTHVILLE     CLEAR     78  75  90 CALM      29.89R
BELLE CHASSE   NOT AVBL
BOGALUSA*        N/A     70  67  90 CALM      29.92S
GALLIANO*      PTSUNNY   74  71  90 CALM      29.89R FOG
NEW ROADS*       N/A     71  69  93 CALM      29.90S
GONZALES*        N/A     73  72  97 CALM      29.89R
HAMMOND*       CLEAR     70  68  94 CALM      29.90S
HOUMA*         NOT AVBL
PORT FOURCHON* MOSUNNY   81  72  74 CALM      29.89S

$$

MSZ070-080>082-260800-
SOUTHERN MISSISSIPPI

CITY           SKY/WX    TMP DP  RH WIND       PRES   REMARKS
MCCOMB         CLEAR     71  67  87 CALM      29.92R
GULFPORT       CLEAR     73  71  93 N3        29.89R
BILOXI         CLEAR     73  71  93 NE6       29.89S
PASCAGOULA     CLEAR     70  68  93 CALM      29.89F

$$

COASTAL OBSERVATIONS
LAKE AND NEARSHORE STATIONS

STATION/POSITION TIME  TEMP    WIND        PRES    WAVE
                       AIR SEA DIR/SP/G            HT/PER
                 (UTC) (F)     (DEG/KT/KT) (MB)    (FT/S)
PASCAGOULA       0642   75      90/  2/  8 1011.6
WAVELAND YACHT   0642   75 83   70/  8/  9 1012.1
GRAND ISLE       0642   81 84  160/  3/  5 1011.9
SOUTHWEST PASS   0642   82     160/  5/  7   N/A
NEW CANAL        0642   77 83   90/  2/  4 1012.0
SHELL BEACH      0642   80 84  110/  5/  6 1011.9

OFFSHORE STATIONS

STATION/POSITION TIME  TEMP    WIND        PRES    WAVE
                       AIR SEA DIR/SP/G            HT/PER
                 (UTC) (F)     (DEG/KT/KT) (MB)    (FT/S)
64 S DAUPHIN ISL 0650   82 83  130/  8/ 10 1011.8    2/ 6

$$




USA.gov is the U.S. government's official web portal to all federal, state and local government web resources and services.